Regional Weather Roundup
Issued by NWS Cleveland, OH

Home | Current Version | Previous Version | Graphics & Text | Print | Product List | Glossary On
Versions: 1 2 3 4 5 6 7 8 9 10 11 12 13 14 15 16 17 18 19 20 21 22 23 24 25 26 27 28 29 30 31 32 33 34 35 36 37 38 39 40 41 42 43 44 45 46 47 48 49 50
000
ASUS41 KCLE 232210
RWRCLE
OHIO REGIONAL WEATHER ROUNDUP
NATIONAL WEATHER SERVICE CLEVELAND, OH
500 PM EST THU FEB 23 2017

NOTE: "FAIR" INDICATES FEW OR NO CLOUDS BELOW 12,000 FEET WITH NO
SIGNIFICANT WEATHER AND/OR OBSTRUCTIONS TO VISIBILITY.

OHZ001>008-015>018-024>027-034-035-043-044-232300-
   NORTHWEST OHIO

CITY           SKY/WX    TMP DP  RH WIND       PRES   REMARKS
DEFIANCE       CLOUDY    64  46  52 CALM      29.76S
FINDLAY        CLOUDY    66  53  63 W7        29.76R
TOLEDO EXPRESS CLOUDY    64  44  48 N7        29.76R
TOLEDO EXEC    CLOUDY    67  46  47 CALM      29.77R
LIMA           CLOUDY    63  56  78 NW7       29.76S
$$

OHZ009>014-019>023-028>033-038-089-232300-
   NORTHEAST OHIO

CITY           SKY/WX    TMP DP  RH WIND       PRES   REMARKS
CLE-HOPKINS    CLOUDY    66  52  60 W14       29.80R
CLE-LAKEFRONT  CLOUDY    54  49  83 CALM      29.79R
CUY CO. ARPT   CLOUDY    61  54  77 NW9       29.80R
LORAIN-ELYRIA  CLOUDY    64  52  64 W7        29.79R
ASHTABULA      SUNNY     63  54  72 NW7       29.79R
AKRON-CANTON   PTSUNNY   67  51  56 W12       29.78R
WOOSTER        PTSUNNY   66  53  63 SW6       29.78R
MANSFIELD      CLOUDY    66  53  63 W6        29.78R
YOUNGSTOWN     PTSUNNY   66  52  60 W8        29.78R
$$

OHZ042-051>053-060>062-070>072-077>081-232300-
  SOUTHWEST OHIO

CITY           SKY/WX    TMP DP  RH WIND       PRES   REMARKS
CINC-COVINGTON CLOUDY    68  55  63 S8        29.76S
CINC-LUNKEN    CLOUDY    68  57  68 S7        29.77R
HAMILTON       CLOUDY    69  56  62 SW6       29.77R
DAYTON         CLOUDY    66  54  65 SW9       29.77R
WRIGHT-PAT AFB CLOUDY    67  56  67 SW9       29.76R
DAYTON GENERAL CLOUDY    68  54  60 SW8       29.76R
WILMINGTON     CLOUDY    66  56  70 S8        29.77R
$$

OHZ036-037-039>041-045>050-054>059-063>069-073>076-082>088-232300-
  CENTRAL AND SOUTHEAST OHIO

CITY           SKY/WX    TMP DP  RH WIND       PRES   REMARKS
COLUMBUS       CLOUDY    69  54  58 SW6       29.77R
OSU AIRPORT    CLOUDY    67  56  67 SW8       29.77R
BOLTON FIELD   CLOUDY    66  57  72 SW6       29.79R
RICKENBACK AFB CLOUDY    67  56  68 SW7       29.77S
NEWARK         CLOUDY    68  55  63 W7        29.77S
MARION         CLOUDY    66  53  63 W6        29.78R
LANCASTER      PTSUNNY   70  55  59 SW7       29.78S
ZANESVILLE     PTSUNNY   70  53  54 S8        29.78R
NEW PHILLY     NOT AVBL
$$



USA.gov is the U.S. government's official web portal to all federal, state and local government web resources and services.